Ana Sayfa
METAR-TAF:

METAR-TAF

Havaalanları :

Pittsburg, Kansas, Amerika Birleşik Devletleri

Enlem: 37-26-58N, Boylam: 094-43-52W, yükseklik: 290 m

Güncel hava durumu gözlemi

Rapor saat 12:35 UTC de 11 dakika önce yapıldı.
Rüzgar güneydan 13 kt ve 19 kt'a kadar ani rüzgarlar
Sıcaklık 25°C
Nem 74%
Basınç 1012 hPa
Görüş mesafesi: 16.1 km
Açık gökyüzü

METAR: KPTS 181235Z AUTO 17013G19KT 10SM CLR 25/20 A2987 RMK AO2 T02450198 PWINO

Saat: 07:46 (12:46 UTC)


TAF: eksik

4.000'den fazla havaalanı için hava durumu gözlemleri ve tahminleri (METAR ve TAF raporları).

Kullanılabilir istasyonlar harita üzerinde sarı ve kırmızı noktalarla gösterilir.

İstasyonun adını görmek için fareyi noktanın üzerinde gezdirin.

Sonrasında hava gözlem ve tahminlerini görmek için tıklayın.

Haritayı değiştirmek için: yaklaştırmak için siyah artı işaretli yeşil düğmeye ve uzaklaştırmak için de eksi işaretli düğmeye hızla tıklayın; bitişik haritalar için yeşil okları kullanın.


METAR-TAF: